TimeEST,TemperatureF,Dew PointF,Humidity,Sea Level PressureIn,VisibilityMPH,Wind Direction,Wind SpeedMPH,Gust SpeedMPH,PrecipitationIn,Events,Conditions,WindDirDegrees,DateUTC
12:53 AM,27.0,19.9,75,30.11,10.0,WNW,3.5,-,N/A,,Overcast,290,2013-02-16 05:53:00
1:53 AM,27.0,19.9,75,30.10,10.0,NW,3.5,-,N/A,,Overcast,310,2013-02-16 06:53:00
2:53 AM,28.0,15.1,58,30.09,10.0,WNW,8.1,-,N/A,,Overcast,290,2013-02-16 07:53:00
3:53 AM,27.0,14.0,58,30.08,10.0,WNW,5.8,-,N/A,,Overcast,300,2013-02-16 08:53:00
4:53 AM,27.0,14.0,58,30.06,10.0,NW,4.6,-,N/A,,Overcast,320,2013-02-16 09:53:00
5:53 AM,26.1,15.1,63,30.07,10.0,WNW,3.5,-,N/A,,Mostly Cloudy,300,2013-02-16 10:53:00
6:34 AM,24.8,14.0,64,30.04,10.0,Calm,Calm,-,N/A,,Mostly Cloudy,0,2013-02-16 11:34:00
6:45 AM,24.8,14.0,64,30.03,10.0,Calm,Calm,-,N/A,,Scattered Clouds,0,2013-02-16 11:45:00
6:53 AM,24.1,14.0,65,30.06,10.0,Calm,Calm,-,N/A,,Partly Cloudy,0,2013-02-16 11:53:00
7:53 AM,21.0,15.1,78,30.08,10.0,Calm,Calm,-,N/A,,Clear,0,2013-02-16 12:53:00
8:53 AM,26.1,16.0,66,30.08,10.0,Calm,Calm,-,N/A,,Clear,0,2013-02-16 13:53:00
9:53 AM,27.0,14.0,58,30.07,10.0,Variable,3.5,-,N/A,,Clear,0,2013-02-16 14:53:00
10:53 AM,28.0,10.0,47,30.06,10.0,Variable,3.5,-,N/A,,Overcast,0,2013-02-16 15:53:00
11:53 AM,28.0,8.1,43,30.05,10.0,West,4.6,-,N/A,,Overcast,280,2013-02-16 16:53:00
12:53 PM,28.9,8.1,41,30.02,10.0,Calm,Calm,-,N/A,,Mostly Cloudy,0,2013-02-16 17:53:00
1:53 PM,28.9,8.1,41,30.00,10.0,West,5.8,-,N/A,,Overcast,270,2013-02-16 18:53:00
2:53 PM,28.9,10.0,45,30.00,10.0,West,5.8,-,N/A,,Overcast,270,2013-02-16 19:53:00
3:53 PM,28.9,10.0,45,29.99,10.0,SW,8.1,-,N/A,,Overcast,220,2013-02-16 20:53:00
4:53 PM,28.9,10.9,47,29.99,10.0,SSW,3.5,-,N/A,,Partly Cloudy,200,2013-02-16 21:53:00
5:53 PM,28.0,14.0,56,30.00,7.0,WSW,4.6,-,0.00,Snow,Light Snow,250,2013-02-16 22:53:00
6:32 PM,26.6,19.4,74,29.98,1.8,WNW,8.1,-,0.00,Snow,Light Snow,290,2013-02-16 23:32:00
6:39 PM,24.8,19.4,80,29.98,1.2,West,10.4,17.3,0.00,Snow,Light Snow,270,2013-02-16 23:39:00
6:44 PM,24.8,17.6,74,29.98,3.0,West,6.9,-,0.00,Snow,Light Snow,280,2013-02-16 23:44:00
6:48 PM,24.8,19.4,80,29.98,2.0,WNW,9.2,-,0.00,Snow,Light Snow,290,2013-02-16 23:48:00
6:53 PM,25.0,19.9,81,30.02,1.0,WNW,9.2,-,0.00,Snow,Light Snow,290,2013-02-16 23:53:00
7:09 PM,24.8,21.2,86,29.98,1.2,WNW,6.9,-,0.00,Snow,Light Snow,300,2013-02-17 00:09:00
7:21 PM,24.8,19.4,80,29.98,2.5,WNW,10.4,17.3,0.00,Snow,Light Snow,300,2013-02-17 00:21:00
7:28 PM,24.8,19.4,80,29.98,7.0,WNW,5.8,-,0.00,Snow,Light Snow,300,2013-02-17 00:28:00
7:35 PM,24.8,17.6,74,29.98,8.0,NW,6.9,-,0.00,,Overcast,310,2013-02-17 00:35:00
7:53 PM,24.1,17.1,75,30.02,10.0,NW,8.1,-,0.00,,Overcast,310,2013-02-17 00:53:00
8:53 PM,24.1,15.1,69,30.02,8.0,WNW,11.5,19.6,0.00,,Overcast,300,2013-02-17 01:53:00
9:53 PM,23.0,15.1,72,30.02,10.0,WNW,11.5,-,0.00,,Overcast,300,2013-02-17 02:53:00
10:53 PM,21.9,15.1,75,30.02,7.0,WNW,9.2,-,N/A,,Overcast,290,2013-02-17 03:53:00
11:13 PM,21.2,15.8,80,29.98,2.5,WNW,9.2,-,0.00,Snow,Light Snow,290,2013-02-17 04:13:00
11:24 PM,21.2,15.8,80,29.98,1.5,West,8.1,-,0.00,Snow,Light Snow,280,2013-02-17 04:24:00
11:36 PM,21.2,15.8,80,29.98,3.0,NW,10.4,-,0.00,Snow,Light Snow,310,2013-02-17 04:36:00
11:48 PM,21.2,15.8,80,29.98,2.0,West,6.9,-,0.00,Snow,Light Snow,280,2013-02-17 04:48:00
11:53 PM,21.0,15.1,78,30.02,2.5,NW,11.5,18.4,0.00,Snow,Light Snow,310,2013-02-17 04:53:00